Regional Weather Roundup
Issued by NWS Sioux Falls, SD

Home | Current Version | Previous Version | Text Only | Print | Product List | Glossary On
Versions: 1 2 3 4 5 6 7 8 9 10 11 12 13 14 15 16 17 18 19 20 21 22 23 24 25 26 27 28 29 30 31 32 33 34 35 36 37 38 39 40 41 42 43 44 45 46 47 48 49 50
000
ASUS43 KFSD 010510
RWRFSD

WEATHER ROUNDUP FOR SE SOUTH DAKOTA/SW MINNESOTA/NW IOWA
NATIONAL WEATHER SERVICE SIOUX FALLS SD
1200 AM CDT WED JUN 01 2016

NOTE: "FAIR" INDICATES FEW OR NO CLOUDS BELOW 12,000 FEET WITH NO
SIGNIFICANT WEATHER AND OR OBSTRUCTIONS TO VISIBILITY.


SDZ038>040-050-052>070-010600-
SOUTHEAST SOUTH DAKOTA

CITY           SKY/WX    TMP DP  RH WIND       PRES   REMARKS
BROOKINGS      CLEAR     57  47  69 W14       29.88S
CHAMBERLAIN    CLEAR     58  50  77 W10       29.98R
HURON          PTCLDY    56  45  66 W17G28    29.90R
MADISON        FAIR      57  48  72 W15G21    29.92S
MITCHELL       CLEAR     59  49  69 SW9       29.95S
SIOUX FALLS    CLEAR     60  48  64 W13G21    29.93R
WINNER         FAIR      55  46  71 W12       30.01R
YANKTON        CLEAR     61  46  59 W10G17    29.97R
$$

MNZ071-072-080-081-089-090-097-098-010600-
SOUTHWEST MINNESOTA

CITY           SKY/WX    TMP DP  RH WIND       PRES   REMARKS
FAIRMONT       CLEAR     63  52  67 S8        29.90S
JACKSON        MOCLDY    63  48  59 SW7       29.91R
LUVERNE        PTCLDY    61  46  59 W12       29.93R
MARSHALL       CLEAR     62  46  55 W21       29.86S
MONTEVIDEO     PTCLDY    63  46  55 W14G22    29.85S
PIPESTONE      CLEAR     61  48  63 W15       29.91R
REDWOOD FALLS  PTCLDY    65  49  56 W13       29.85R
TRACY          PTCLDY    63  51  64 W9G17     29.88S
WINDOM         MOCLDY    63  52  67 SW5       29.90R
WORTHINGTON    MOCLDY    62  51  67 W9        29.93R
$$

IAZ001>003-012>014-020>022-031-032-NEZ013-014-SDZ071-010600-
NORTHWEST IOWA

CITY           SKY/WX    TMP DP  RH WIND       PRES   REMARKS
CHEROKEE       PTCLDY    56  53  89 S6        29.94R
DENISON        CLOUDY    61  54  77 CALM      29.95S
ESTHERVILLE    CLEAR     56  53  90 S8        29.91S
LE MARS        CLEAR     63  52  67 W9        29.97R
ORANGE CITY    CLEAR     63  52  67 W12       29.96R
SHELDON        CLEAR     63  52  67 W14       29.92R
SIOUX CITY     PTCLDY    67  49  52 NW15      29.97R
SPENCER        CLEAR     59  51  75 S12       29.92R
STORM LAKE     CLEAR     59  50  72 S8        29.96R
$$

ABBREVIATIONS USED IN REMARKS
   TC - TEMPERATURE IN CELSIUS
  WCI - WIND CHILL INDEX
   HX - HEAT INDEX
  VSB - VISIBILITY




USA.gov is the U.S. government's official web portal to all federal, state and local government web resources and services.